{"data":{"norad_id":62435,"intl_designator":"2024-251D","name":"STARLINK-32711","alt_names":[],"object_type":"PAYLOAD","status":"ACTIVE","operator":null,"country":"US","launch_date":"2024-12-29","launch_site_code":"AFWTR","launch_vehicle":null,"mission":null,"orbit_class":"UNKNOWN","rcs_meters":null,"size_class":null,"mass_kg":null,"dimensions":null,"purposes":["comms"],"wikipedia_slug":null,"has_3d_model":false,"image_url":null,"decayed_at":null,"tle_current":{"epoch":"2026-05-24T22:54:24.339168Z","epoch_age_seconds":72899,"freshness":"FRESH","line1":"1 62435U 24251D   26144.95444837  .00029161  00000+0  99264-3 0  9996","line2":"2 62435  53.1603 341.1505 0001053  83.5967 276.5154 15.30206232 79624","mean_motion":15.30206232,"eccentricity":0.0001053,"inclination_deg":53.1603,"raan_deg":341.1505,"arg_perigee_deg":83.5967,"mean_anomaly_deg":276.5154,"bstar":0.00099264,"rev_number":7962,"period_min":94.104962447964,"perigee_km":474.47480584027,"apogee_km":475.91811786733,"semimajor_km":6853.3334618538,"source":"CELESTRAK","updated_at":"2026-05-25T13:38:19.657345Z"}}}